Change the Weather History Date:

Sunday, March 23, 2014

  Actual Average Record
Temperature  
Mean Temperature 58 °F 53 °F  
Max Temperature 76 °F 67 °F 85 °F (1956)
Min Temperature 39 °F 39 °F 24 °F (2009)
Degree Days  
Heating Degree Days 7 12  
Month to date heating degree days 238 327  
Since 1 July heating degree days 2560 2740  
Cooling Degree Days 0 0  
Month to date cooling degree days 0 0  
Year to date cooling degree days 0 0  
Growing Degree Days 7 (Base 50)    
Moisture  
Dew Point 16 °F    
Average Humidity 26    
Maximum Humidity 44    
Minimum Humidity 8    
Precipitation  
Precipitation 0.00 in 0.02 in 1.20 in (1954)
Month to date precipitation 0.11 0.60  
Year to date precipitation 0.55 2.76  
Sea Level Pressure  
Sea Level Pressure 29.96 in    
Wind  
Wind Speed 4 mph (ENE)    
Max Wind Speed 16 mph    
Max Gust Speed 19 mph    
Visibility 10 miles    
Events      
T = Trace of Precipitation, MM = Missing Value Source: NWS Daily Summary

Daily Weather History Graph

Daily Weather History Graph

Search for Another Location

Airport or City:

Trip Planner

Search our weather history database for the weather conditions in past years. The results will help you decide how hot, cold, wet, or windy it might be!

Date:

Astronomy

Mar. 23, 2014 Rise Set
Actual Time 6:35 AM MST 6:49 PM MST
Civil Twilight 6:09 AM MST 7:15 PM MST
Nautical Twilight 5:40 AM MST 7:45 PM MST
Astronomical Twilight 5:09 AM MST 8:15 PM MST
Moon 1:00 AM MST (3/23) 11:30 AM MST (3/23)
Length of Visible Light 13h 05m
Length of Day
12h 14m
Waning Gibbous, 53% of the Moon is Illuminated
Mar 23
Waning Gibbous
Mar 23
Last Quarter
Mar 30
New
Apr 7
First Quarter
Apr 15
Full

Hourly Weather History & Observations

Time (MST) Temp. Windchill Dew Point Humidity Pressure Visibility Wind Dir Wind Speed Gust Speed Precip Events Conditions
12:51 AM 46.0 °F 43.9 °F 19.9 °F 35% 29.94 in 10.0 mi SSE 4.6 mph - N/A   Clear
1:51 AM 46.0 °F 44.8 °F 19.9 °F 35% 29.94 in 10.0 mi NNE 3.5 mph - N/A   Clear
2:51 AM 48.0 °F - 19.9 °F 33% 29.94 in 10.0 mi SE 6.9 mph - N/A   Clear
3:51 AM 48.0 °F - 19.9 °F 33% 29.94 in 10.0 mi West 3.5 mph - N/A   Clear
4:51 AM 42.1 °F - 19.9 °F 41% 29.96 in 10.0 mi Calm Calm - N/A   Clear
5:51 AM 42.1 °F 36.6 °F 19.9 °F 41% 29.97 in 10.0 mi SE 9.2 mph - N/A   Clear
6:51 AM 39.9 °F - 19.9 °F 45% 30.00 in 10.0 mi Calm Calm - N/A   Clear
7:51 AM 50.0 °F - 21.9 °F 33% 30.01 in 10.0 mi Calm Calm - N/A   Clear
8:51 AM 61.0 °F - 21.9 °F 22% 30.01 in 10.0 mi Calm Calm - N/A   Clear
9:51 AM 64.0 °F - 19.9 °F 18% 30.01 in 10.0 mi NNW 4.6 mph - N/A   Clear
10:51 AM 68.0 °F - 18.0 °F 15% 30.00 in 10.0 mi Calm Calm - N/A   Clear
11:51 AM 71.1 °F - 16.0 °F 12% 30.00 in 10.0 mi Variable 3.5 mph - N/A   Clear
12:51 PM 73.0 °F - 9.0 °F 8% 29.98 in 10.0 mi Calm Calm - 0.00 in   Clear
1:51 PM 73.9 °F - 10.9 °F 9% 29.94 in 10.0 mi Calm Calm - N/A   Clear
2:51 PM 75.0 °F - 12.9 °F 9% 29.92 in 10.0 mi North - - N/A   Clear
3:51 PM 75.0 °F - 15.1 °F 10% 29.90 in 10.0 mi North - - N/A   Clear
4:51 PM 73.0 °F - 16.0 °F 11% 29.91 in 10.0 mi North 12.7 mph - N/A   Clear
5:51 PM 72.0 °F - 14.0 °F 11% 29.92 in 10.0 mi North 11.5 mph - N/A   Clear
6:51 PM 66.9 °F - 12.9 °F 12% 29.94 in 10.0 mi North 10.4 mph - N/A   Clear
7:51 PM 61.0 °F - 12.0 °F 15% 29.95 in 10.0 mi NNE 4.6 mph - N/A   Clear
8:51 PM 55.0 °F - 10.9 °F 17% 29.96 in 10.0 mi East 3.5 mph - N/A   Clear
9:51 PM 55.9 °F - 10.9 °F 17% 29.96 in 10.0 mi Calm Calm - N/A   Clear
10:51 PM 48.9 °F - 12.0 °F 23% 29.98 in 10.0 mi SSE 3.5 mph - N/A   Clear
11:51 PM 48.0 °F - 12.0 °F 24% 29.96 in 10.0 mi South 4.6 mph - N/A   Clear